DLH26C EDDF-LEBL

Flight info

Callsign DLH26C
Flight time 1h 32m
Altitude 35000
Route ANEKI2L/18 ANEKI Y163 HERBI Y164 MOPAN DCT LUTIX DCT BENOT DCT NEMOS DCT GEVEA/N0420F270 DCT INCUS DCT BALSI DCT RETNO DCT TUPOX DCT MTG DCT DIVKO DCT NILDU DCT BISBA
Aircraft A321/M-SDE3FGHIRWY/LB1

Departure

Time 2026-04-14 07:53
Airport Frankfurt Main Airport (EDDF)

Arrival

Time 2026-04-14 09:26
Airport Josep Tarradellas Barcelona-El Prat Airport (LEBL)
Time Latitude Longitude Altitude Speed Heading
2026-04-14 07:24 50.04455 8.56430 356 ft 0 kts 154°
2026-04-14 07:41 50.04455 8.56429 363 ft 1 kts 154°
2026-04-14 07:41 50.04469 8.56419 357 ft 3 kts 154°
2026-04-14 07:42 50.04487 8.56406 363 ft 3 kts 159°
2026-04-14 07:42 50.04506 8.56397 364 ft 3 kts 181°
2026-04-14 07:42 50.04520 8.56401 359 ft 2 kts 240°
2026-04-14 07:42 50.04521 8.56402 359 ft 2 kts 250°
2026-04-14 07:43 50.04516 8.56382 360 ft 1 kts 250°
2026-04-14 07:43 50.04516 8.56380 359 ft 0 kts 250°
2026-04-14 07:46 50.04515 8.56378 359 ft 1 kts 250°
2026-04-14 07:46 50.04511 8.56358 363 ft 5 kts 250°
2026-04-14 07:46 50.04493 8.56283 357 ft 8 kts 250°
2026-04-14 07:46 50.04466 8.56171 363 ft 18 kts 249°
2026-04-14 07:47 50.04398 8.56034 356 ft 16 kts 182°
2026-04-14 07:47 50.04348 8.56052 363 ft 0 kts 159°
2026-04-14 07:49 50.04319 8.56073 360 ft 12 kts 150°
2026-04-14 07:49 50.04259 8.56226 361 ft 19 kts 148°
2026-04-14 07:49 50.04136 8.56266 355 ft 18 kts 212°
2026-04-14 07:49 50.04076 8.56065 359 ft 24 kts 249°
2026-04-14 07:50 50.04014 8.55804 355 ft 28 kts 249°
2026-04-14 07:50 50.03944 8.55511 352 ft 29 kts 249°
2026-04-14 07:50 50.03875 8.55223 357 ft 29 kts 249°
2026-04-14 07:50 50.03805 8.54933 356 ft 29 kts 250°
2026-04-14 07:51 50.03731 8.54624 348 ft 30 kts 250°
2026-04-14 07:51 50.03657 8.54309 348 ft 31 kts 250°
2026-04-14 07:51 50.03581 8.53998 337 ft 31 kts 249°
2026-04-14 07:51 50.03508 8.53690 336 ft 31 kts 250°
2026-04-14 07:52 50.03434 8.53379 337 ft 31 kts 249°
2026-04-14 07:52 50.03360 8.53068 333 ft 31 kts 250°
2026-04-14 07:52 50.03287 8.52756 331 ft 30 kts 249°
2026-04-14 07:52 50.03164 8.52599 335 ft 28 kts 185°
2026-04-14 07:53 50.02792 8.52604 335 ft 87 kts 180°
2026-04-14 07:53 50.01969 8.52606 335 ft 147 kts 179°
2026-04-14 07:53 50.00787 8.52638 475 ft 181 kts 178°
2026-04-14 07:53 49.99548 8.52745 1290 ft 178 kts 177°
2026-04-14 07:54 49.98280 8.52833 2043 ft 190 kts 178°
2026-04-14 07:54 49.96883 8.52917 2509 ft 212 kts 177°
2026-04-14 07:54 49.95335 8.53011 2848 ft 233 kts 177°
2026-04-14 07:54 49.93676 8.53114 3319 ft 242 kts 176°
2026-04-14 07:55 49.91986 8.53224 4064 ft 243 kts 177°
2026-04-14 07:55 49.90295 8.53338 4838 ft 244 kts 177°
2026-04-14 07:55 49.88616 8.53452 5542 ft 245 kts 178°
2026-04-14 07:55 49.86886 8.53568 6243 ft 247 kts 178°
2026-04-14 07:56 49.85185 8.53682 6892 ft 249 kts 178°
2026-04-14 07:56 49.83441 8.53799 7540 ft 250 kts 178°
2026-04-14 07:56 49.81700 8.53915 8223 ft 251 kts 179°
2026-04-14 07:56 49.79950 8.54034 8916 ft 252 kts 179°
2026-04-14 07:57 49.78198 8.54139 9617 ft 252 kts 182°
2026-04-14 07:57 49.76400 8.53944 9919 ft 269 kts 186°
2026-04-14 07:57 49.74475 8.53685 10218 ft 283 kts 186°
2026-04-14 07:57 49.72450 8.53407 10419 ft 302 kts 186°
2026-04-14 07:58 49.70292 8.53108 10547 ft 321 kts 186°
2026-04-14 07:58 49.67996 8.52796 10677 ft 339 kts 186°
2026-04-14 07:58 49.66407 8.52581 10760 ft 351 kts 186°
2026-04-14 07:58 49.63057 8.52133 10970 ft 370 kts 186°
2026-04-14 07:59 49.61346 8.51909 11243 ft 374 kts 186°
2026-04-14 07:59 49.58740 8.51571 11728 ft 377 kts 186°
2026-04-14 07:59 49.56117 8.51232 12241 ft 379 kts 186°
2026-04-14 07:59 49.53478 8.50891 12767 ft 382 kts 186°
2026-04-14 08:00 49.49958 8.50435 13467 ft 385 kts 186°
2026-04-14 08:00 49.48157 8.50200 13823 ft 386 kts 186°
2026-04-14 08:00 49.45467 8.49847 14293 ft 388 kts 186°
2026-04-14 08:00 49.42770 8.49489 14737 ft 391 kts 186°
2026-04-14 08:01 49.40049 8.49130 15168 ft 393 kts 186°
2026-04-14 08:01 49.37314 8.48773 15601 ft 395 kts 186°
2026-04-14 08:01 49.34565 8.48415 16038 ft 397 kts 186°
2026-04-14 08:01 49.31841 8.48060 16466 ft 399 kts 186°
2026-04-14 08:02 49.29063 8.47697 16887 ft 402 kts 186°
2026-04-14 08:02 49.26271 8.47331 17295 ft 404 kts 186°
2026-04-14 08:02 49.23463 8.46962 17709 ft 406 kts 186°
2026-04-14 08:02 49.20639 8.46597 18127 ft 409 kts 186°
2026-04-14 08:03 49.17796 8.46230 18518 ft 411 kts 186°
2026-04-14 08:03 49.14927 8.45859 18859 ft 414 kts 186°
2026-04-14 08:03 49.12049 8.45488 19206 ft 416 kts 186°
2026-04-14 08:03 49.09156 8.45112 19561 ft 418 kts 186°
2026-04-14 08:04 49.06259 8.44660 19912 ft 420 kts 190°
2026-04-14 08:04 49.03397 8.43726 20264 ft 421 kts 194°
2026-04-14 08:04 49.00536 8.42723 20623 ft 423 kts 194°
2026-04-14 08:04 48.97659 8.41717 20958 ft 425 kts 194°
2026-04-14 08:05 48.94767 8.40709 21290 ft 428 kts 193°
2026-04-14 08:05 48.91857 8.39701 21625 ft 430 kts 193°
2026-04-14 08:05 48.88931 8.38688 21963 ft 432 kts 193°
2026-04-14 08:05 48.85994 8.37671 22297 ft 434 kts 193°
2026-04-14 08:06 48.83042 8.36654 22631 ft 436 kts 193°
2026-04-14 08:06 48.80076 8.35630 22972 ft 438 kts 193°
2026-04-14 08:06 48.77097 8.34594 23298 ft 440 kts 194°
2026-04-14 08:06 48.74105 8.33516 23582 ft 444 kts 194°
2026-04-14 08:07 48.71103 8.32411 23866 ft 446 kts 194°
2026-04-14 08:07 48.68082 8.31291 24131 ft 447 kts 194°
2026-04-14 08:07 48.65057 8.30171 24405 ft 449 kts 194°
2026-04-14 08:07 48.62051 8.29063 24676 ft 450 kts 194°
2026-04-14 08:08 48.59004 8.27947 24944 ft 452 kts 194°
2026-04-14 08:08 48.55943 8.26832 25204 ft 453 kts 194°
2026-04-14 08:08 48.52870 8.25719 25448 ft 454 kts 194°
2026-04-14 08:08 48.49792 8.24611 25688 ft 455 kts 194°
2026-04-14 08:09 48.46710 8.23502 25914 ft 456 kts 194°
2026-04-14 08:09 48.43622 8.22377 26136 ft 457 kts 194°
2026-04-14 08:09 48.40525 8.21240 26396 ft 457 kts 194°
2026-04-14 08:09 48.37442 8.20108 26703 ft 456 kts 195°
2026-04-14 08:10 48.34359 8.18981 26994 ft 455 kts 194°
2026-04-14 08:10 48.31276 8.17861 27269 ft 455 kts 194°
2026-04-14 08:10 48.28205 8.16746 27576 ft 454 kts 195°
2026-04-14 08:10 48.25163 8.15520 27876 ft 452 kts 200°
2026-04-14 08:11 48.22274 8.13704 28174 ft 449 kts 207°
2026-04-14 08:11 48.19478 8.11613 28496 ft 448 kts 207°
2026-04-14 08:11 48.16681 8.09535 28803 ft 447 kts 207°
2026-04-14 08:11 48.13894 8.07477 29115 ft 446 kts 207°
2026-04-14 08:12 48.11110 8.05432 29436 ft 445 kts 207°
2026-04-14 08:12 48.08333 8.03396 29748 ft 443 kts 207°
2026-04-14 08:12 48.05569 8.01368 30082 ft 442 kts 207°
2026-04-14 08:12 48.02808 7.99338 30375 ft 441 kts 207°
2026-04-14 08:13 48.00055 7.97314 30610 ft 441 kts 207°
2026-04-14 08:13 47.97301 7.95292 30818 ft 441 kts 207°
2026-04-14 08:13 47.94548 7.93274 31009 ft 441 kts 207°
2026-04-14 08:13 47.91786 7.91253 31193 ft 442 kts 207°
2026-04-14 08:14 47.89060 7.89262 31380 ft 442 kts 207°
2026-04-14 08:14 47.86259 7.87218 31588 ft 443 kts 207°
2026-04-14 08:14 47.83530 7.85226 31788 ft 443 kts 207°
2026-04-14 08:14 47.80725 7.83178 31991 ft 443 kts 207°
2026-04-14 08:15 47.77992 7.81183 32190 ft 444 kts 207°
2026-04-14 08:15 47.75217 7.79170 32392 ft 444 kts 207°
2026-04-14 08:15 47.72441 7.77162 32594 ft 444 kts 207°
2026-04-14 08:15 47.69657 7.75146 32776 ft 445 kts 207°
2026-04-14 08:16 47.66880 7.73134 32973 ft 445 kts 207°
2026-04-14 08:16 47.64093 7.71118 33168 ft 445 kts 207°
2026-04-14 08:16 47.61302 7.69099 33362 ft 446 kts 207°
2026-04-14 08:16 47.58510 7.67081 33564 ft 446 kts 207°
2026-04-14 08:17 47.55722 7.65068 33773 ft 446 kts 207°
2026-04-14 08:17 47.52929 7.63055 33949 ft 447 kts 207°
2026-04-14 08:17 47.50127 7.61038 34130 ft 447 kts 207°
2026-04-14 08:17 47.47324 7.59029 34282 ft 448 kts 207°
2026-04-14 08:18 47.44523 7.57022 34417 ft 448 kts 207°
2026-04-14 08:18 47.41714 7.55011 34549 ft 448 kts 207°
2026-04-14 08:18 47.38904 7.53005 34682 ft 449 kts 207°
2026-04-14 08:18 47.36090 7.51000 34807 ft 449 kts 207°
2026-04-14 08:19 47.33274 7.48991 34919 ft 450 kts 207°
2026-04-14 08:19 47.30454 7.46978 35078 ft 450 kts 207°
2026-04-14 08:19 47.27630 7.44967 35130 ft 452 kts 207°
2026-04-14 08:20 47.21933 7.40924 35134 ft 455 kts 207°
2026-04-14 08:20 47.16576 7.36163 35138 ft 452 kts 221°
2026-04-14 08:21 47.12349 7.29377 35138 ft 451 kts 233°
2026-04-14 08:21 47.08420 7.22119 35135 ft 451 kts 233°
2026-04-14 08:22 47.04496 7.14932 35133 ft 452 kts 232°
2026-04-14 08:22 47.00558 7.07736 35151 ft 452 kts 232°
2026-04-14 08:23 46.96622 7.00552 35150 ft 453 kts 232°
2026-04-14 08:23 46.92672 6.93367 35145 ft 454 kts 233°
2026-04-14 08:24 46.88129 6.86979 35131 ft 458 kts 221°
2026-04-14 08:24 46.83188 6.81089 35139 ft 459 kts 221°
2026-04-14 08:25 46.78240 6.75205 35139 ft 459 kts 221°
2026-04-14 08:25 46.73270 6.69311 35137 ft 460 kts 220°
2026-04-14 08:26 46.68299 6.63437 35141 ft 460 kts 220°
2026-04-14 08:26 46.63323 6.57558 35138 ft 461 kts 221°
2026-04-14 08:27 46.58374 6.51719 35134 ft 461 kts 220°
2026-04-14 08:27 46.53395 6.45867 35131 ft 461 kts 221°
2026-04-14 08:28 46.48398 6.40006 35112 ft 462 kts 221°
2026-04-14 08:28 46.43382 6.34150 35103 ft 464 kts 221°
2026-04-14 08:29 46.38344 6.28279 35117 ft 465 kts 221°
2026-04-14 08:29 46.33305 6.22411 35133 ft 465 kts 221°
2026-04-14 08:30 46.28196 6.16630 35137 ft 467 kts 215°
2026-04-14 08:30 46.22264 6.12724 35146 ft 472 kts 196°
2026-04-14 08:31 46.15784 6.11105 35147 ft 474 kts 189°
2026-04-14 08:31 46.05993 6.08921 35124 ft 475 kts 190°
2026-04-14 08:32 45.99460 6.07456 35129 ft 475 kts 190°
2026-04-14 08:32 45.92924 6.06017 35132 ft 475 kts 189°
2026-04-14 08:33 45.86427 6.04597 35135 ft 475 kts 190°
2026-04-14 08:33 45.79890 6.03153 35125 ft 475 kts 190°
2026-04-14 08:34 45.73353 6.01699 35126 ft 476 kts 190°
2026-04-14 08:34 45.66810 6.00254 35160 ft 476 kts 189°
2026-04-14 08:35 45.60260 5.98821 35160 ft 476 kts 189°
2026-04-14 08:35 45.53711 5.97396 35155 ft 476 kts 189°
2026-04-14 08:36 45.47159 5.95946 35147 ft 476 kts 191°
2026-04-14 08:36 45.40666 5.94106 35133 ft 476 kts 194°
2026-04-14 08:37 45.34217 5.91949 35117 ft 476 kts 194°
2026-04-14 08:37 45.27764 5.89814 35099 ft 476 kts 194°
2026-04-14 08:38 45.21287 5.87788 35094 ft 476 kts 193°
2026-04-14 08:38 45.14812 5.85807 35085 ft 476 kts 193°
2026-04-14 08:39 45.08372 5.83835 35083 ft 476 kts 193°
2026-04-14 08:39 45.01897 5.81844 35090 ft 476 kts 193°
2026-04-14 08:40 44.95429 5.79840 35084 ft 475 kts 193°
2026-04-14 08:40 44.88966 5.77844 35071 ft 475 kts 193°
2026-04-14 08:41 44.82508 5.75866 35054 ft 475 kts 193°
2026-04-14 08:41 44.76047 5.73897 35056 ft 474 kts 193°
2026-04-14 08:42 44.69646 5.71945 35045 ft 474 kts 193°
2026-04-14 08:42 44.63201 5.69976 35020 ft 475 kts 193°
2026-04-14 08:43 44.57780 5.68329 34992 ft 477 kts 193°
2026-04-14 08:43 44.50214 5.66037 34981 ft 479 kts 193°
2026-04-14 08:44 44.43687 5.64064 34977 ft 480 kts 193°
2026-04-14 08:44 44.38276 5.62354 34975 ft 480 kts 198°
2026-04-14 08:45 44.32043 5.59072 34969 ft 479 kts 202°
2026-04-14 08:45 44.25835 5.55672 34971 ft 479 kts 202°
2026-04-14 08:46 44.19629 5.52293 34968 ft 479 kts 202°
2026-04-14 08:46 44.13414 5.48908 34958 ft 479 kts 202°
2026-04-14 08:47 44.07204 5.45524 34964 ft 479 kts 202°
2026-04-14 08:47 44.01010 5.42156 34961 ft 478 kts 202°
2026-04-14 08:48 43.94820 5.38803 34961 ft 477 kts 202°
2026-04-14 08:48 43.88638 5.35458 34962 ft 476 kts 202°
2026-04-14 08:49 43.82502 5.32148 34954 ft 476 kts 202°
2026-04-14 08:49 43.76269 5.28803 34941 ft 478 kts 202°
2026-04-14 08:50 43.70091 5.25492 34950 ft 480 kts 202°
2026-04-14 08:50 43.63859 5.22141 34959 ft 481 kts 202°
2026-04-14 08:51 43.57618 5.18796 34965 ft 481 kts 202°
2026-04-14 08:51 43.51364 5.15451 34973 ft 482 kts 202°
2026-04-14 08:52 43.45105 5.12117 34972 ft 482 kts 202°
2026-04-14 08:52 43.38902 5.08627 34974 ft 481 kts 209°
2026-04-14 08:53 43.33311 5.03657 34977 ft 479 kts 217°
2026-04-14 08:53 43.27808 4.98469 34975 ft 480 kts 217°
2026-04-14 08:54 43.22334 4.93325 34966 ft 481 kts 216°
2026-04-14 08:54 43.16762 4.88105 34962 ft 483 kts 216°
2026-04-14 08:55 43.11197 4.82900 34987 ft 485 kts 216°
2026-04-14 08:55 43.05642 4.77632 34991 ft 485 kts 220°
2026-04-14 08:56 43.00598 4.71609 35009 ft 485 kts 223°
2026-04-14 08:56 42.95541 4.65489 35022 ft 485 kts 224°
2026-04-14 08:57 42.90474 4.59385 35033 ft 486 kts 223°
2026-04-14 08:57 42.85397 4.53278 35012 ft 487 kts 224°
2026-04-14 08:58 42.80297 4.47154 35011 ft 489 kts 224°
2026-04-14 08:58 42.75326 4.40841 35032 ft 488 kts 229°
2026-04-14 08:59 42.70681 4.34099 35043 ft 488 kts 230°
2026-04-14 08:59 42.66097 4.27288 35046 ft 488 kts 231°
2026-04-14 09:00 42.61490 4.20492 35057 ft 489 kts 230°
2026-04-14 09:00 42.56857 4.13735 35051 ft 489 kts 230°
2026-04-14 09:01 42.52204 4.06992 35071 ft 490 kts 231°
2026-04-14 09:01 42.47538 4.00227 35021 ft 492 kts 230°
2026-04-14 09:02 42.45206 3.96843 34776 ft 492 kts 231°
2026-04-14 09:02 42.42871 3.93461 34545 ft 491 kts 231°
2026-04-14 09:02 42.40538 3.90084 34313 ft 491 kts 231°
2026-04-14 09:02 42.38201 3.86706 34078 ft 492 kts 230°
2026-04-14 09:03 42.35865 3.83340 33812 ft 491 kts 230°
2026-04-14 09:03 42.33517 3.79971 33540 ft 492 kts 230°
2026-04-14 09:03 42.31169 3.76603 33266 ft 493 kts 230°
2026-04-14 09:03 42.28817 3.73232 33032 ft 493 kts 230°
2026-04-14 09:04 42.24092 3.66504 33065 ft 494 kts 230°
2026-04-14 09:04 42.19374 3.59826 33065 ft 495 kts 230°
2026-04-14 09:05 42.14622 3.53119 33062 ft 495 kts 230°
2026-04-14 09:05 42.09868 3.46408 33062 ft 495 kts 230°
2026-04-14 09:06 42.05107 3.39698 33059 ft 495 kts 230°
2026-04-14 09:06 42.00345 3.33010 33059 ft 495 kts 230°
2026-04-14 09:07 41.95565 3.26322 33059 ft 495 kts 229°
2026-04-14 09:07 41.90792 3.19660 33056 ft 493 kts 229°
2026-04-14 09:08 41.86032 3.13021 33060 ft 493 kts 229°
2026-04-14 09:08 41.81273 3.06383 33065 ft 493 kts 229°
2026-04-14 09:09 41.76499 2.99743 33065 ft 497 kts 230°
2026-04-14 09:09 41.71683 2.93078 33067 ft 498 kts 230°
2026-04-14 09:10 41.66865 2.86426 33064 ft 498 kts 230°
2026-04-14 09:10 41.62077 2.79825 33071 ft 497 kts 230°
2026-04-14 09:11 41.57253 2.73196 33072 ft 498 kts 230°
2026-04-14 09:11 41.52424 2.66558 33045 ft 497 kts 230°
2026-04-14 09:12 41.47592 2.59933 33075 ft 499 kts 230°
2026-04-14 09:12 41.42825 2.53433 33066 ft 474 kts 231°
2026-04-14 09:13 41.40555 2.50357 33076 ft 459 kts 231°
2026-04-14 09:13 41.38354 2.47372 33082 ft 455 kts 231°
2026-04-14 09:13 41.33967 2.41325 33075 ft 450 kts 237°
2026-04-14 09:14 41.32423 2.37835 33087 ft 430 kts 260°
2026-04-14 09:14 41.31980 2.34030 33078 ft 407 kts 283°
2026-04-14 09:14 41.32654 2.30501 33076 ft 385 kts 306°
2026-04-14 09:14 41.34269 2.27810 33060 ft 365 kts 329°
2026-04-14 09:15 41.36487 2.26390 33079 ft 350 kts 352°
2026-04-14 09:15 41.38886 2.26453 33082 ft 348 kts 15°
2026-04-14 09:15 41.41030 2.27980 33083 ft 359 kts 38°
2026-04-14 09:15 41.42530 2.30710 33105 ft 377 kts 57°
2026-04-14 09:16 41.44810 2.37112 33071 ft 384 kts 58°
2026-04-14 09:16 41.47099 2.43557 33081 ft 385 kts 58°
2026-04-14 09:17 41.48245 2.46784 32877 ft 385 kts 58°
2026-04-14 09:17 41.49395 2.50022 31665 ft 390 kts 58°
2026-04-14 09:17 41.50583 2.53343 29900 ft 402 kts 58°
2026-04-14 09:17 41.51793 2.56755 27906 ft 412 kts 62°
2026-04-14 09:18 41.52468 2.60555 25971 ft 434 kts 82°
2026-04-14 09:18 41.52061 2.64580 24107 ft 456 kts 103°
2026-04-14 09:18 41.50523 2.68343 22283 ft 469 kts 128°
2026-04-14 09:18 41.48065 2.71091 20943 ft 457 kts 149°
2026-04-14 09:19 41.45122 2.72482 19616 ft 446 kts 169°
2026-04-14 09:19 41.42066 2.72387 18266 ft 437 kts 191°
2026-04-14 09:19 41.39293 2.70841 16714 ft 430 kts 213°
2026-04-14 09:19 41.37186 2.68090 15214 ft 422 kts 234°
2026-04-14 09:20 41.35917 2.64626 13688 ft 415 kts 255°
2026-04-14 09:20 41.35522 2.60874 12133 ft 405 kts 272°
2026-04-14 09:20 41.35912 2.57262 11001 ft 385 kts 288°
2026-04-14 09:20 41.36904 2.54072 10020 ft 363 kts 298°
2026-04-14 09:21 41.38011 2.51136 9011 ft 346 kts 298°
2026-04-14 09:21 41.39073 2.48332 8070 ft 332 kts 299°
2026-04-14 09:21 41.40101 2.45634 7197 ft 326 kts 299°
2026-04-14 09:21 41.40870 2.42756 6310 ft 337 kts 278°
2026-04-14 09:22 41.40607 2.39636 5443 ft 345 kts 251°
2026-04-14 09:22 41.39638 2.36762 4982 ft 336 kts 243°
2026-04-14 09:22 41.38603 2.33996 4370 ft 333 kts 244°
2026-04-14 09:22 41.37645 2.31200 3493 ft 326 kts 246°
2026-04-14 09:23 41.36762 2.28548 2977 ft 300 kts 246°
2026-04-14 09:23 41.35939 2.26119 2590 ft 276 kts 246°
2026-04-14 09:23 41.35177 2.23882 2228 ft 255 kts 246°
2026-04-14 09:23 41.34481 2.21839 1902 ft 230 kts 246°
2026-04-14 09:24 41.33844 2.19969 1615 ft 216 kts 247°
2026-04-14 09:24 41.33242 2.18200 1311 ft 201 kts 246°
2026-04-14 09:24 41.32705 2.16627 1057 ft 178 kts 247°
2026-04-14 09:24 41.32215 2.15192 839 ft 162 kts 247°
2026-04-14 09:25 41.31767 2.13881 634 ft 150 kts 250°
2026-04-14 09:25 41.31343 2.12637 405 ft 147 kts 249°
2026-04-14 09:25 41.30918 2.11419 225 ft 144 kts 249°
2026-04-14 09:25 41.30508 2.10210 44 ft 143 kts 249°
2026-04-14 09:26 41.30141 2.09105 14 ft 111 kts 246°
2026-04-14 09:26 41.29896 2.08381 20 ft 61 kts 243°
2026-04-14 09:26 41.29764 2.07995 19 ft 40 kts 250°
2026-04-14 09:26 41.29755 2.07724 17 ft 20 kts 276°
2026-04-14 09:27 41.29836 2.07590 18 ft 20 kts 333°
2026-04-14 09:27 41.29950 2.07529 18 ft 14 kts 352°
2026-04-14 09:27 41.30017 2.07615 18 ft 15 kts 66°
2026-04-14 09:27 41.30060 2.07747 18 ft 16 kts 66°
2026-04-14 09:28 41.30090 2.07839 19 ft 17 kts 65°
2026-04-14 09:28 41.30140 2.07985 18 ft 18 kts 65°
2026-04-14 09:28 41.30209 2.08035 18 ft 11 kts 358°
2026-04-14 09:28 41.30242 2.08036 18 ft 3 kts
2026-04-14 09:29 41.30243 2.08036 18 ft 0 kts